EN

Hourly Weather Kyzylshekara

Today, 5 August, Thursday

Time Temperature Precipitation Wind Pressure Humidity
00:00 +14°C° 0 mm 1 mps 613 mmHg 68%
01:00 +14°C° 0 mm 1 mps 613 mmHg 67%
02:00 +13°C° 0 mm 1 mps 613 mmHg 66%
03:00 +13°C° 0 mm 1 mps 613 mmHg 65%
04:00 +13°C° 0 mm 1 mps 613 mmHg 63%
05:00 +13°C° 0 mm 1 mps 613 mmHg 63%
06:00 +16°C° 0 mm 1 mps 614 mmHg 55%
07:00 +19°C° 0 mm 2 mps 614 mmHg 47%
08:00 +21°C° 0 mm 2 mps 615 mmHg 39%
09:00 +24°C° 0 mm 2 mps 615 mmHg 34%
10:00 +25°C° 0 mm 2 mps 615 mmHg 30%
11:00 +27°C° 0 mm 3 mps 615 mmHg 25%
12:00 +27°C° 0 mm 3 mps 615 mmHg 25%
13:00 +27°C° 0 mm 4 mps 615 mmHg 24%
14:00 +28°C° 0 mm 4 mps 615 mmHg 24%
15:00 +27°C° 0 mm 4 mps 614 mmHg 26%
16:00 +26°C° 0 mm 4 mps 614 mmHg 27%
17:00 +26°C° 0 mm 4 mps 614 mmHg 29%
18:00 +23°C° 0 mm 4 mps 614 mmHg 34%
19:00 +20°C° 0 mm 3 mps 614 mmHg 39%
20:00 +18°C° 0 mm 3 mps 614 mmHg 44%
21:00 +18°C° 0 mm 2 mps 613 mmHg 46%
22:00 +17°C° 0 mm 2 mps 613 mmHg 47%
23:00 +16°C° 0 mm 2 mps 613 mmHg 48%

Tomorrow, 6 August, Friday

Time Temperature Precipitation Wind Pressure Humidity
00:00 +16°C° 0 mm 2 mps 613 mmHg 48%
01:00 +15°C° 0 mm 2 mps 612 mmHg 49%
02:00 +15°C° 0 mm 2 mps 612 mmHg 49%
03:00 +15°C° 0 mm 2 mps 612 mmHg 49%
04:00 +15°C° 0 mm 2 mps 612 mmHg 49%
05:00 +14°C° 0 mm 2 mps 612 mmHg 49%
06:00 +18°C° 0 mm 1 mps 613 mmHg 43%
07:00 +20°C° 0 mm 1 mps 614 mmHg 38%
08:00 +23°C° 0 mm 1 mps 614 mmHg 32%
09:00 +24°C° 0 mm 1 mps 614 mmHg 29%
10:00 +26°C° 0 mm 2 mps 614 mmHg 26%
11:00 +27°C° 0 mm 2 mps 614 mmHg 22%
12:00 +28°C° 0 mm 2 mps 614 mmHg 22%
13:00 +28°C° 0 mm 3 mps 614 mmHg 21%
14:00 +29°C° 0 mm 3 mps 614 mmHg 20%
15:00 +28°C° 0 mm 4 mps 614 mmHg 22%
16:00 +27°C° 0 mm 4 mps 613 mmHg 24%
17:00 +26°C° 0 mm 4 mps 613 mmHg 27%
18:00 +23°C° 0 mm 4 mps 613 mmHg 34%
19:00 +20°C° 0 mm 3 mps 613 mmHg 41%
20:00 +18°C° 0 mm 2 mps 613 mmHg 48%
21:00 +17°C° 0 mm 2 mps 613 mmHg 48%
22:00 +17°C° 0 mm 2 mps 613 mmHg 48%
23:00 +16°C° 0 mm 1 mps 612 mmHg 48%

Day after tomorrow, 7 August, Saturday

Time Temperature Precipitation Wind Pressure Humidity
00:00 +16°C° 0 mm 2 mps 612 mmHg 48%
01:00 +15°C° 0 mm 2 mps 612 mmHg 49%
02:00 +15°C° 0 mm 2 mps 612 mmHg 49%
03:00 +15°C° 0 mm 2 mps 612 mmHg 49%
04:00 +15°C° 0 mm 1 mps 612 mmHg 49%
05:00 +15°C° 0 mm 1 mps 612 mmHg 50%
06:00 +18°C° 0 mm 1 mps 613 mmHg 45%
07:00 +20°C° 0 mm 1 mps 614 mmHg 40%
08:00 +23°C° 0 mm 1 mps 615 mmHg 35%
09:00 +24°C° 0 mm 2 mps 615 mmHg 32%
10:00 +26°C° 0 mm 2 mps 615 mmHg 28%
11:00 +28°C° 0 mm 2 mps 615 mmHg 24%
12:00 +28°C° 0 mm 3 mps 615 mmHg 25%
13:00 +28°C° 0 mm 3 mps 614 mmHg 25%
14:00 +29°C° 0 mm 3 mps 614 mmHg 25%
15:00 +27°C° 0.1 mm 3 mps 614 mmHg 32%
16:00 +25°C° 0.1 mm 3 mps 614 mmHg 39%
17:00 +22°C° 0.1 mm 3 mps 614 mmHg 45%
18:00 +21°C° 0.1 mm 2 mps 614 mmHg 51%
19:00 +20°C° 0.1 mm 1 mps 614 mmHg 56%
20:00 +19°C° 0.1 mm 1 mps 614 mmHg 62%
21:00 +18°C° 0 mm 1 mps 614 mmHg 63%
22:00 +16°C° 0 mm 1 mps 614 mmHg 64%
23:00 +16°C° 0 mm 1 mps 613 mmHg 65%

8 August, Sunday

Time Temperature Precipitation Wind Pressure Humidity
00:00 +15°C° 0 mm 1 mps 613 mmHg 65%
01:00 +15°C° 0 mm 1 mps 613 mmHg 65%
02:00 +15°C° 0 mm 1 mps 613 mmHg 65%
03:00 +15°C° 0 mm 1 mps 613 mmHg 64%
04:00 +15°C° 0 mm 1 mps 613 mmHg 63%
05:00 +14°C° 0 mm 1 mps 613 mmHg 62%
06:00 +18°C° 0 mm 1 mps 614 mmHg 57%
07:00 +20°C° 0 mm 1 mps 614 mmHg 51%
08:00 +22°C° 0 mm 1 mps 615 mmHg 45%
09:00 +23°C° 0 mm 1 mps 615 mmHg 41%
10:00 +25°C° 0 mm 1 mps 615 mmHg 36%
11:00 +26°C° 0 mm 1 mps 615 mmHg 32%
12:00 +25°C° 0.1 mm 3 mps 615 mmHg 35%
13:00 +25°C° 0.1 mm 4 mps 615 mmHg 37%
14:00 +23°C° 0.1 mm 5 mps 615 mmHg 40%
15:00 +22°C° 0.4 mm 4 mps 615 mmHg 46%
16:00 +20°C° 0.4 mm 3 mps 615 mmHg 52%
17:00 +19°C° 0.4 mm 2 mps 616 mmHg 57%
18:00 +18°C° 0 mm 2 mps 616 mmHg 63%
19:00 +16°C° 0 mm 1 mps 616 mmHg 69%
20:00 +15°C° 0 mm 1 mps 615 mmHg 74%
21:00 +14°C° 0 mm 1 mps 615 mmHg 75%
22:00 +14°C° 0 mm 1 mps 615 mmHg 75%
23:00 +13°C° 0 mm 1 mps 615 mmHg 76%

9 August, Monday

Time Temperature Precipitation Wind Pressure Humidity
00:00 +13°C° 0 mm 1 mps 615 mmHg 73%
01:00 +13°C° 0 mm 1 mps 614 mmHg 70%
02:00 +13°C° 0 mm 1 mps 614 mmHg 68%
03:00 +13°C° 0 mm 1 mps 614 mmHg 66%
04:00 +13°C° 0 mm 1 mps 614 mmHg 64%
05:00 +13°C° 0 mm 1 mps 614 mmHg 62%
06:00 +16°C° 0 mm 1 mps 614 mmHg 54%
07:00 +20°C° 0 mm 1 mps 615 mmHg 46%
08:00 +22°C° 0 mm 1 mps 616 mmHg 38%
09:00 +24°C° 0 mm 1 mps 616 mmHg 33%
10:00 +26°C° 0 mm 1 mps 616 mmHg 27%
11:00 +28°C° 0 mm 2 mps 616 mmHg 21%
12:00 +29°C° 0 mm 2 mps 615 mmHg 19%
13:00 +30°C° 0 mm 2 mps 615 mmHg 18%
14:00 +30°C° 0 mm 2 mps 614 mmHg 16%
15:00 +29°C° 0 mm 2 mps 614 mmHg 20%
16:00 +28°C° 0 mm 3 mps 614 mmHg 23%
17:00 +27°C° 0 mm 3 mps 614 mmHg 27%
18:00 +24°C° 0.1 mm 3 mps 614 mmHg 38%
19:00 +20°C° 0.1 mm 2 mps 614 mmHg 49%
20:00 +17°C° 0.1 mm 2 mps 614 mmHg 60%
21:00 +17°C° 0.2 mm 2 mps 614 mmHg 65%
22:00 +16°C° 0.2 mm 2 mps 614 mmHg 71%
23:00 +15°C° 0.2 mm 2 mps 614 mmHg 77%

10 August, Tuesday

Time Temperature Precipitation Wind Pressure Humidity
00:00 +15°C° 0.5 mm 2 mps 614 mmHg 80%
01:00 +14°C° 0.5 mm 1 mps 614 mmHg 83%
02:00 +14°C° 0.5 mm 1 mps 614 mmHg 86%
03:00 +13°C° 0.1 mm 1 mps 614 mmHg 86%
04:00 +13°C° 0.1 mm 1 mps 614 mmHg 87%
05:00 +11°C° 0.1 mm 0 mps 614 mmHg 87%
06:00 +14°C° 0 mm 1 mps 614 mmHg 80%
07:00 +16°C° 0 mm 1 mps 615 mmHg 73%
08:00 +18°C° 0 mm 1 mps 615 mmHg 66%
09:00 +20°C° 0 mm 1 mps 615 mmHg 56%
10:00 +22°C° 0 mm 1 mps 615 mmHg 46%
11:00 +24°C° 0 mm 2 mps 615 mmHg 36%
12:00 +24°C° 0.2 mm 2 mps 615 mmHg 36%
13:00 +24°C° 0.2 mm 3 mps 615 mmHg 36%
14:00 +25°C° 0.2 mm 4 mps 615 mmHg 35%
15:00 +22°C° 0.7 mm 3 mps 615 mmHg 45%
16:00 +20°C° 0.7 mm 3 mps 615 mmHg 54%
17:00 +18°C° 0.7 mm 2 mps 615 mmHg 63%
18:00 +16°C° 0.9 mm 2 mps 615 mmHg 72%
19:00 +14°C° 0.9 mm 1 mps 615 mmHg 81%
20:00 +12°C° 0.9 mm 1 mps 615 mmHg 91%
21:00 +12°C° 0.1 mm 1 mps 615 mmHg 90%
22:00 +12°C° 0.1 mm 1 mps 614 mmHg 89%
23:00 +10°C° 0.1 mm 0 mps 614 mmHg 89%
Show more